Regional Weather Roundup
Issued by NWS Cleveland, OH

Home | Current Version | Previous Version | Graphics & Text | Print | Product List | Glossary On
Versions: 1 2 3 4 5 6 7 8 9 10 11 12 13 14 15 16 17 18 19 20 21 22 23 24 25 26 27 28 29 30 31 32 33 34 35 36 37 38 39 40 41 42 43 44 45 46 47 48 49 50
000
ASUS41 KCLE 262200
RWRCLE
OHIO REGIONAL WEATHER ROUNDUP
NATIONAL WEATHER SERVICE WILMINGTON, OH
600 PM EDT SUN APR 26 2015

NOTE: "FAIR" INDICATES FEW OR NO CLOUDS BELOW 12,000 FEET WITH NO
SIGNIFICANT WEATHER AND/OR OBSTRUCTIONS TO VISIBILITY.

OHZ001>008-015>018-024>027-034-035-043-044-262300-
   NORTHWEST OHIO

CITY           SKY/WX    TMP DP  RH WIND       PRES   REMARKS
DEFIANCE       PTSUNNY   59  29  31 N10       29.88S
FINDLAY        MOSUNNY   57  30  35 N12G20    29.86S
TOLEDO EXPRESS PTSUNNY   58  27  30 N12G20    29.88R
TOLEDO EXEC    SUNNY     58  28  32 NE12G18   29.89R
LIMA           SUNNY     55  32  41 NE9G21    29.87S
$$

OHZ009>014-019>023-028>033-038-089-262300-
   NORTHEAST OHIO

CITY           SKY/WX    TMP DP  RH WIND       PRES   REMARKS
CLE-HOPKINS    SUNNY     53  29  39 N13       29.89S
CLE-LAKEFRONT  SUNNY     46  35  65 W5        29.87S
CUY CO. ARPT   NOT AVBL
LORAIN-ELYRIA  SUNNY     52  31  44 N14       29.88R
ASHTABULA      CLOUDY    49  28  44 NW9       29.86R
AKRON-CANTON   MOSUNNY   55  28  35 N14G23    29.83R
WOOSTER        NOT AVBL
MANSFIELD      SUNNY     53  29  39 N15G22    29.86R
YOUNGSTOWN     MOSUNNY   52  29  41 N17G23    29.82S
$$

OHZ042-051>053-060>062-070>072-077>081-262300-
  SOUTHWEST OHIO

CITY           SKY/WX    TMP DP  RH WIND       PRES   REMARKS
CINC-COVINGTON MOSUNNY   59  35  40 N12G20    29.84R
CINC-LUNKEN    SUNNY     58  35  42 N10       29.84S
HAMILTON       MOSUNNY   59  36  42 N13G20    29.86S
DAYTON         NOT AVBL
WRIGHT-PAT AFB NOT AVBL
DAYTON GENERAL MOSUNNY   57  36  45 N14       29.84S
WILMINGTON     PTSUNNY   56  34  43 N16G22    29.83S
$$

OHZ036-037-039>041-045>050-054>059-063>069-073>076-082>088-262300-
  CENTRAL AND SOUTHEAST OHIO

CITY           SKY/WX    TMP DP  RH WIND       PRES   REMARKS
COLUMBUS       MOSUNNY   57  32  38 N16G24    29.81S
OSU AIRPORT    SUNNY     56  30  37 N17G23    29.83R
BOLTON FIELD   NOT AVBL
RICKENBACK AFB NOT AVBL
NEWARK         SUNNY     59  31  34 N13G22    29.80S
MARION         SUNNY     54  30  40 NE22G32   29.86S
LANCASTER      MOSUNNY   60  34  37 N13       29.81R
ZANESVILLE     SUNNY     57  31  37 N10       29.79S
NEW PHILLY     SUNNY     59  30  33 N10G23    29.81R
$$


USA.gov is the U.S. government's official web portal to all federal, state and local government web resources and services.